This is the latest recevied weather packets stored in our database for station/object AF5AA. If no packets are shown the sender has not sent any weather packets the latest 10 day(s).
| Time | Temp. | Humidity | Pressure | Rain* | Wind** | Luminosity | Snow |
|---|---|---|---|---|---|---|---|
| 1778001926 | 25.56° C | 80% | 1006.8 hPa | 0 mm | - | 122 W/m² | - |
| 1778001621 | 25.56° C | 80% | 1006.8 hPa | 0 mm | - | 107 W/m² | - |
| 1778001317 | 25° C | 82% | 1006.9 hPa | 0 mm | - | 140 W/m² | - |
| 1778001014 | 25° C | 82% | 1007.1 hPa | 0 mm | - | 93 W/m² | - |
| 1778000711 | 25° C | 82% | 1007.2 hPa | 0 mm | - | 77 W/m² | - |
| 1778000407 | 25° C | 82% | 1007.2 hPa | 0 mm | - | 102 W/m² | - |
| 1778000102 | 25° C | 82% | 1007.1 hPa | 0 mm | - | 58 W/m² | - |
| 1777999798 | 24.44° C | 83% | 1007.1 hPa | 0 mm | - | 72 W/m² | - |
| 1777999494 | 25° C | 83% | 1007.3 hPa | 0 mm | - | 70 W/m² | - |
| 1777999193 | 24.44° C | 83% | 1007.1 hPa | 0 mm | - | 70 W/m² | - |
| 1777998891 | 24.44° C | 83% | 1007.3 hPa | 0 mm | - | 93 W/m² | - |
| 1777998590 | 24.44° C | 83% | 1007.1 hPa | 0 mm | - | 80 W/m² | - |
| 1777998285 | 24.44° C | 84% | 1007.3 hPa | 0 mm | - | 68 W/m² | - |
| 1777997982 | 24.44° C | 84% | 1007.1 hPa | 0 mm | - | 108 W/m² | - |
| 1777997679 | 24.44° C | 84% | 1007.2 hPa | 0 mm | - | 59 W/m² | - |
| 1777997377 | 23.89° C | 83% | 1007.2 hPa | 0 mm | - | 75 W/m² | - |
| 1777997075 | 23.89° C | 84% | 1006.9 hPa | 0 mm | - | 76 W/m² | - |
| 1777996770 | 23.89° C | 85% | 1006.9 hPa | 0 mm | - | 91 W/m² | - |
| 1777996468 | 23.89° C | 85% | 1007 hPa | 0 mm | - | 55 W/m² | - |
| 1777996164 | 23.89° C | 85% | 1006.8 hPa | 0 mm | - | 85 W/m² | - |
| 1777995860 | 23.33° C | 86% | 1007.1 hPa | 0 mm | - | 107 W/m² | - |
| 1777995556 | 23.33° C | 86% | 1007 hPa | 0 mm | - | 56 W/m² | - |
| 1777995254 | 23.33° C | 86% | 1007.2 hPa | 0 mm | - | 44 W/m² | - |
| 1777994951 | 22.78° C | 86% | 1007.2 hPa | 0 mm | - | 59 W/m² | - |
| 1777994648 | 22.78° C | 87% | 1007.2 hPa | 0 mm | - | 46 W/m² | - |
* Rain latest hour (hover to see other rain measurements)
** Current wind speed in m/s (hover to see current wind gust speed)